Weather History for Glenwood, MN

Change the Weather History Date:

Tuesday, February 12, 2013

  Actual Average Record
Temperature  
Mean Temperature 19 °F -  
Max Temperature 28 °F 23 °F 53 °F (2005)
Min Temperature 10 °F 2 °F -28 °F (1955)
Degree Days  
Heating Degree Days 46    
Moisture  
Dew Point 15 °F    
Average Humidity 86    
Maximum Humidity 100    
Minimum Humidity 69    
Precipitation  
Precipitation 0.00 in - - ()
Sea Level Pressure  
Sea Level Pressure 29.85 in    
Wind  
Wind Speed 8 mph (SW)    
Max Wind Speed 15 mph    
Max Gust Speed -    
Visibility 10 miles    
Events      
Averages and records for this station are not official NWS values.
T = Trace of Precipitation, MM = Missing Value Source: NWS Daily Summary

Daily Weather History Graph

Daily Weather History Graph

Search for Another Location

Airport:

Trip Planner

Search our weather history database for the weather conditions in past years. The results will help you decide how hot, cold, wet, or windy it might be!

Date:

Astronomy

Feb. 12, 2013 Rise Set
Actual Time 7:27 AM CST 5:44 PM CST
Civil Twilight 6:56 AM CST 6:14 PM CST
Nautical Twilight 6:21 AM CST 6:49 PM CST
Astronomical Twilight 5:47 AM CST 7:24 PM CST
Moon 8:14 AM CST (2/12) 8:58 PM CST (2/12)
Length of Visible Light 11h 18m
Length of Day
10h 16m
Waxing Crescent, 7% of the Moon is Illuminated
Feb 12
Waxing Crescent
Feb 17
First Quarter
Feb 25
Full
Mar 4
Last Quarter
Mar 11
New

Hourly Weather History & Observations

Time (CST) Temp. Windchill Dew Point Humidity Pressure Visibility Wind Dir Wind Speed Gust Speed Precip Events Conditions
12:13 AM 12.2 °F 6.1 °F 10.4 °F 92% 29.98 in 10.0 mi SSW 3.5 mph - N/A   Overcast
12:33 AM 12.2 °F 6.1 °F 10.4 °F 92% 29.98 in 10.0 mi SW 3.5 mph - N/A   Overcast
12:53 AM 14.0 °F 8.2 °F 10.4 °F 86% 29.97 in 10.0 mi South 3.5 mph - N/A   Overcast
1:13 AM 14.0 °F 6.5 °F 12.2 °F 93% 29.96 in 10.0 mi South 4.6 mph - N/A   Overcast
1:33 AM 14.0 °F 6.5 °F 12.2 °F 93% 29.95 in 10.0 mi South 4.6 mph - N/A   Overcast
1:54 AM 15.8 °F 7.2 °F 12.2 °F 86% 29.95 in 10.0 mi South 5.8 mph - N/A   Overcast
2:13 AM 17.6 °F 6.4 °F 15.8 °F 93% 29.95 in 10.0 mi SSW 9.2 mph - N/A   Overcast
2:33 AM 17.6 °F 5.7 °F 14.0 °F 86% 29.94 in 10.0 mi SSW 10.4 mph - N/A   Overcast
2:54 AM 17.6 °F 4.3 °F 14.0 °F 86% 29.94 in 10.0 mi South 12.7 mph - N/A   Overcast
3:13 AM 15.8 °F 3.4 °F 12.2 °F 86% 29.93 in 10.0 mi South 10.4 mph - N/A   Mostly Cloudy
3:33 AM 12.2 °F 0.7 °F 10.4 °F 92% 29.92 in 10.0 mi South 8.1 mph - N/A   Clear
3:54 AM 12.2 °F 0.7 °F 10.4 °F 92% 29.91 in 10.0 mi South 8.1 mph - N/A   Clear
4:13 AM 12.2 °F 0.7 °F 10.4 °F 92% 29.91 in 10.0 mi South 8.1 mph - N/A   Clear
4:33 AM 10.4 °F -2.4 °F 8.6 °F 92% 29.90 in 10.0 mi South 9.2 mph - N/A   Clear
4:54 AM 10.4 °F -1.5 °F 8.6 °F 92% 29.90 in 10.0 mi South 8.1 mph - N/A   Clear
5:13 AM 10.4 °F -1.5 °F 8.6 °F 92% 29.89 in 10.0 mi South 8.1 mph - N/A   Clear
5:33 AM 12.2 °F 0.7 °F 10.4 °F 92% 29.89 in 10.0 mi South 8.1 mph - N/A   Clear
5:54 AM 14.0 °F 2.0 °F 12.2 °F 93% 29.87 in 10.0 mi South 9.2 mph - N/A   Scattered Clouds
6:13 AM 15.8 °F 4.2 °F 12.2 °F 86% 29.87 in 10.0 mi South 9.2 mph - N/A   Mostly Cloudy
6:33 AM 14.0 °F 0.5 °F 12.2 °F 93% 29.86 in 10.0 mi South 11.5 mph - N/A   Overcast
6:53 AM 15.8 °F 2.1 °F 12.2 °F 86% 29.85 in 10.0 mi South 12.7 mph - N/A   Overcast
7:13 AM 15.8 °F 2.1 °F 14.0 °F 93% 29.85 in 10.0 mi South 12.7 mph - N/A   Overcast
7:33 AM 15.8 °F 2.1 °F 14.0 °F 93% 29.85 in 10.0 mi SSW 12.7 mph - N/A   Overcast
7:53 AM 15.8 °F 2.1 °F 14.0 °F 93% 29.85 in 10.0 mi SSW 12.7 mph - N/A   Overcast
8:13 AM 17.6 °F 3.7 °F 14.0 °F 86% 29.84 in 10.0 mi SSW 13.8 mph - N/A   Scattered Clouds
8:33 AM 15.8 °F 3.4 °F 12.2 °F 86% 29.85 in 10.0 mi SSW 10.4 mph - N/A   Clear
8:53 AM 15.8 °F 4.2 °F 12.2 °F 86% 29.85 in 10.0 mi SSW 9.2 mph - N/A   Clear
9:13 AM 17.6 °F 8.2 °F 14.0 °F 86% 29.85 in 10.0 mi SSW 6.9 mph - N/A   Clear
9:34 AM 17.6 °F 6.4 °F 14.0 °F 86% 29.84 in 10.0 mi SSW 9.2 mph - N/A   Mostly Cloudy
9:53 AM 17.6 °F 7.3 °F 12.2 °F 79% 29.85 in 10.0 mi SSW 8.1 mph - N/A   Mostly Cloudy
10:13 AM 17.6 °F 7.3 °F 14.0 °F 86% 29.84 in 10.0 mi SSW 8.1 mph - N/A   Scattered Clouds
10:33 AM 21.2 °F 10.9 °F 15.8 °F 80% 29.84 in 10.0 mi SSW 9.2 mph - N/A   Clear
10:53 AM 21.2 °F 11.7 °F 15.8 °F 80% 29.84 in 10.0 mi SSW 8.1 mph - N/A   Clear
11:13 AM 23.0 °F 13.9 °F 17.6 °F 80% 29.84 in 10.0 mi SSW 8.1 mph - N/A   Clear
11:34 AM 26.6 °F 16.2 °F 17.6 °F 69% 29.84 in 10.0 mi WSW 11.5 mph - N/A   Clear
11:53 AM 26.6 °F 16.8 °F 17.6 °F 69% 29.83 in 10.0 mi WSW 10.4 mph - N/A   Clear
12:13 PM 26.6 °F 16.2 °F 19.4 °F 74% 29.82 in 10.0 mi WSW 11.5 mph - N/A   Clear
12:34 PM 26.6 °F 16.2 °F 17.6 °F 69% 29.80 in 10.0 mi West 11.5 mph - N/A   Clear
12:53 PM 26.6 °F 14.7 °F 19.4 °F 74% 29.80 in 10.0 mi West 15.0 mph - N/A   Clear
1:13 PM 26.6 °F 15.7 °F 19.4 °F 74% 29.80 in 10.0 mi West 12.7 mph - N/A   Clear
1:34 PM 28.4 °F 18.0 °F 19.4 °F 69% 29.80 in 10.0 mi West 12.7 mph - N/A   Clear
1:53 PM 26.6 °F 15.2 °F 19.4 °F 74% 29.80 in 10.0 mi West 13.8 mph - N/A   Clear
2:13 PM 26.6 °F 15.7 °F 19.4 °F 74% 29.80 in 10.0 mi West 12.7 mph - N/A   Clear
2:34 PM 26.6 °F 15.7 °F 19.4 °F 74% 29.81 in 10.0 mi West 12.7 mph - N/A   Clear
2:53 PM 26.6 °F 14.7 °F 17.6 °F 69% 29.80 in 10.0 mi West 15.0 mph - N/A   Clear
3:13 PM 26.6 °F 18.2 °F 19.4 °F 74% 29.81 in 10.0 mi West 8.1 mph - N/A   Clear
3:34 PM 26.6 °F 18.2 °F 19.4 °F 74% 29.82 in 10.0 mi West 8.1 mph - N/A   Clear
3:53 PM 26.6 °F 16.8 °F 19.4 °F 74% 29.81 in 10.0 mi West 10.4 mph - N/A   Clear
4:13 PM 24.8 °F 15.3 °F 17.6 °F 74% 29.81 in 10.0 mi West 9.2 mph - N/A   Clear
4:33 PM 24.8 °F 17.9 °F 17.6 °F 74% 29.81 in 10.0 mi WSW 5.8 mph - N/A   Clear
4:53 PM 23.0 °F 15.8 °F 17.6 °F 80% 29.81 in 10.0 mi WSW 5.8 mph - N/A   Clear
5:13 PM 21.2 °F 10.9 °F 17.6 °F 86% 29.81 in 10.0 mi WSW 9.2 mph - N/A   Clear
5:33 PM 21.2 °F 11.7 °F 17.6 °F 86% 29.81 in 10.0 mi WSW 8.1 mph - N/A   Clear
5:53 PM 19.4 °F 8.6 °F 15.8 °F 86% 29.81 in 10.0 mi WSW 9.2 mph - N/A   Clear
6:13 PM 19.4 °F 8.6 °F 15.8 °F 86% 29.82 in 10.0 mi West 9.2 mph - N/A   Clear
6:33 PM 19.4 °F 8.6 °F 15.8 °F 86% 29.81 in 10.0 mi West 9.2 mph - N/A   Clear
6:53 PM 19.4 °F 9.5 °F 17.6 °F 93% 29.81 in 10.0 mi West 8.1 mph - N/A   Clear
7:13 PM 17.6 °F 8.2 °F 15.8 °F 93% 29.80 in 10.0 mi WSW 6.9 mph - N/A   Clear
7:33 PM 17.6 °F 8.2 °F 15.8 °F 93% 29.81 in 10.0 mi West 6.9 mph - N/A   Clear
7:53 PM 17.6 °F 9.3 °F 15.8 °F 93% 29.81 in 10.0 mi WSW 5.8 mph - N/A   Clear
8:13 PM 17.6 °F 7.3 °F 15.8 °F 93% 29.81 in 10.0 mi WSW 8.1 mph - N/A   Mostly Cloudy
8:33 PM 17.6 °F 7.3 °F 15.8 °F 93% 29.81 in 10.0 mi West 8.1 mph - N/A   Overcast
8:53 PM 17.6 °F 5.7 °F 17.6 °F 100% 29.80 in 10.0 mi West 10.4 mph - N/A   Overcast
9:14 PM 19.4 °F 9.5 °F 17.6 °F 93% 29.80 in 10.0 mi WSW 8.1 mph - N/A   Scattered Clouds
9:33 PM 19.4 °F 9.5 °F 17.6 °F 93% 29.79 in 10.0 mi WSW 8.1 mph - N/A   Scattered Clouds
9:53 PM 17.6 °F 7.3 °F 17.6 °F 100% 29.79 in 10.0 mi WSW 8.1 mph - N/A   Scattered Clouds
10:14 PM 17.6 °F 7.3 °F 15.8 °F 93% 29.79 in 10.0 mi WSW 8.1 mph - N/A   Clear
10:33 PM 17.6 °F 5.7 °F 15.8 °F 93% 29.79 in 10.0 mi West 10.4 mph - N/A   Clear
10:53 PM 17.6 °F 5.7 °F 15.8 °F 93% 29.78 in 10.0 mi WSW 10.4 mph - N/A   Clear
11:14 PM 17.6 °F 5.0 °F 15.8 °F 93% 29.78 in 10.0 mi WSW 11.5 mph - N/A   Clear
11:33 PM 15.8 °F 6.1 °F 15.8 °F 100% 29.77 in 7.0 mi WSW 6.9 mph - N/A   Clear
11:53 PM 15.8 °F 6.1 °F 15.8 °F 100% 29.78 in 10.0 mi WSW 6.9 mph - N/A   Clear